Cavalier, ND

9:57 AM CDT on September 19, 2017 (GMT -0500)
Cavalier

Weather History for K2C8 - December, 2013

Change the Weather History Date:

Tuesday, December 17, 2013

  Actual Average (KGAF) Record (KGAF)
Temperature  
Mean Temperature 14 °F -  
Max Temperature 26 °F 19 °F 45 °F (1962)
Min Temperature 1 °F 5 °F -22 °F (1951)
Degree Days  
Heating Degree Days 52    
Moisture  
Dew Point 4 °F    
Average Humidity 79    
Maximum Humidity 93    
Minimum Humidity 62    
Precipitation  
Precipitation 0.28 in - - ()
Sea Level Pressure  
Sea Level Pressure 29.98 in    
Wind  
Wind Speed 16 mph (NW)    
Max Wind Speed 26 mph    
Max Gust Speed 37 mph    
Visibility 8 miles    
Events Rain , Snow    
Averages and records for this station are not official NWS values.
T = Trace of Precipitation, MM = Missing Value Source: NWS Daily Summary

Daily Weather History Graph

Daily Weather History Graph

Search for Another Location

Airport or City:

Trip Planner

Search our weather history database for the weather conditions in past years. The results will help you decide how hot, cold, wet, or windy it might be!

Date:

Astronomy

Dec. 17, 2013 Rise Set
Actual Time 8:18 AM CST 4:34 PM CST
Civil Twilight 7:41 AM CST 5:12 PM CST
Nautical Twilight 7:01 AM CST 5:52 PM CST
Astronomical Twilight 6:22 AM CST 6:30 PM CST
Moon 5:21 PM CST (12/17) 8:10 AM CST (12/17)
Length of Visible Light 9h 30m
Length of Day
8h 16m
Full, 100% of the Moon is Illuminated
Dec 17
Full
Dec 25
Last Quarter
Jan 1
New
Jan 7
First Quarter
Jan 15
Full

Hourly Weather History & Observations

Time (CST) Temp. Windchill Dew Point Humidity Pressure Visibility Wind Dir Wind Speed Gust Speed Precip Events Conditions
12:15 AM 26.6 °F 12.4 °F 19.4 °F 74% 29.77 in 5.0 mi WNW 21.9 mph 27.6 mph N/A   Haze
12:35 AM 26.6 °F 11.4 °F 19.4 °F 74% 29.77 in 5.0 mi West 25.3 mph 31.1 mph N/A   Haze
12:55 AM 26.6 °F 11.7 °F 19.4 °F 74% 29.77 in 7.0 mi WNW 24.2 mph 33.4 mph N/A   Clear
1:15 AM 26.6 °F 12.0 °F 19.4 °F 74% 29.77 in 4.0 mi WNW 23.0 mph 35.7 mph N/A   Haze
1:35 AM 26.6 °F 12.7 °F 19.4 °F 74% 29.77 in 5.0 mi WNW 20.7 mph 34.5 mph N/A Rain Light Freezing Rain
1:55 AM 26.6 °F 11.1 °F 19.4 °F 74% 29.77 in 5.0 mi WNW 26.5 mph 31.1 mph N/A Rain Light Freezing Rain
2:15 AM 26.6 °F 12.0 °F 19.4 °F 74% 29.78 in 10.0 mi WNW 23.0 mph 29.9 mph N/A   Scattered Clouds
2:35 AM 26.6 °F 12.4 °F 19.4 °F 74% 29.79 in 5.0 mi WNW 21.9 mph 31.1 mph N/A   Haze
2:55 AM 26.6 °F 11.7 °F 19.4 °F 74% 29.80 in 4.0 mi WNW 24.2 mph 31.1 mph N/A Rain Light Freezing Rain
3:15 AM 23.0 °F 6.6 °F 19.4 °F 86% 29.82 in 0.2 mi North 25.3 mph 36.8 mph 0.07 in Rain Light Freezing Rain
3:35 AM 19.4 °F 4.1 °F 17.6 °F 93% 29.85 in 0.8 mi North 18.4 mph 27.6 mph 0.18 in Snow Light Snow
3:55 AM 19.4 °F 2.8 °F 17.6 °F 93% 29.87 in 0.8 mi NNW 21.9 mph 27.6 mph 0.23 in Snow Light Snow
4:15 AM 15.8 °F -1.5 °F 14.0 °F 93% 29.90 in 0.5 mi North 20.7 mph 29.9 mph 0.02 in Snow Snow
4:35 AM 14.0 °F -5.8 °F 10.4 °F 86% 29.92 in 0.8 mi NNW 26.5 mph 34.5 mph 0.03 in Snow Light Snow
4:55 AM 14.0 °F -4.3 °F 8.6 °F 79% 29.93 in 1.8 mi North 21.9 mph 28.8 mph 0.04 in Rain Light Freezing Rain
5:15 AM 14.0 °F -3.4 °F 8.6 °F 79% 29.95 in 3.0 mi North 19.6 mph 27.6 mph N/A Rain Light Freezing Rain
5:35 AM 12.2 °F -3.1 °F 8.6 °F 85% 29.96 in 1.5 mi NNW 13.8 mph 21.9 mph 0.01 in Snow Light Snow
5:55 AM 10.4 °F -7.2 °F 8.6 °F 92% 29.97 in 1.5 mi North 17.3 mph 23.0 mph 0.01 in Snow Light Snow
6:15 AM 10.4 °F -7.7 °F 6.8 °F 85% 29.98 in 5.0 mi North 18.4 mph 24.2 mph N/A Rain Light Freezing Rain
6:35 AM 8.6 °F -8.9 °F 5.0 °F 85% 29.99 in 5.0 mi North 16.1 mph 23.0 mph N/A Rain Light Freezing Rain
6:55 AM 8.6 °F -7.7 °F 5.0 °F 85% 30.01 in 9.0 mi North 13.8 mph 20.7 mph N/A Rain Light Freezing Rain
7:15 AM 8.6 °F -8.9 °F 3.2 °F 79% 30.02 in 10.0 mi NNW 16.1 mph 23.0 mph N/A Rain Light Freezing Rain
7:35 AM 8.6 °F -8.3 °F 1.4 °F 73% 30.03 in 10.0 mi NNW 15.0 mph - N/A   Overcast
7:55 AM 6.8 °F -9.3 °F 1.4 °F 79% 30.03 in 8.0 mi North 12.7 mph 19.6 mph N/A Rain Light Freezing Rain
8:15 AM 6.8 °F -7.8 °F 1.4 °F 79% 30.04 in 8.0 mi North 10.4 mph - N/A   Overcast
8:35 AM 5.0 °F -8.1 °F 1.4 °F 85% 30.05 in 10.0 mi North 8.1 mph - N/A   Overcast
8:55 AM 5.0 °F -9.1 °F -0.4 °F 78% 30.06 in 10.0 mi North 9.2 mph - N/A   Overcast
9:15 AM 5.0 °F -8.1 °F -0.4 °F 78% 30.06 in 10.0 mi North 8.1 mph - N/A   Overcast
9:35 AM 5.0 °F -10.0 °F -0.4 °F 78% 30.08 in 10.0 mi North 10.4 mph - N/A   Overcast
9:55 AM 5.0 °F -10.8 °F -0.4 °F 78% 30.09 in 10.0 mi NNW 11.5 mph - N/A   Overcast
10:15 AM 5.0 °F -10.8 °F -0.4 °F 78% 30.10 in 8.0 mi North 11.5 mph - N/A   Overcast
10:35 AM 5.0 °F -12.3 °F -0.4 °F 78% 30.10 in 7.0 mi North 13.8 mph - N/A   Overcast
10:55 AM 5.0 °F -10.0 °F -2.2 °F 72% 30.10 in 8.0 mi North 10.4 mph - N/A   Overcast
11:15 AM 5.0 °F -10.0 °F -2.2 °F 72% 30.10 in 10.0 mi NNW 10.4 mph - N/A   Overcast
11:35 AM 5.0 °F -6.9 °F -2.2 °F 72% 30.10 in 10.0 mi North 6.9 mph - N/A   Scattered Clouds
11:55 AM 5.0 °F -8.1 °F -2.2 °F 72% 30.09 in 10.0 mi North 8.1 mph - N/A   Clear
12:15 PM 5.0 °F -5.6 °F -2.2 °F 72% 30.09 in 10.0 mi NNW 5.8 mph - N/A   Clear
12:35 PM 5.0 °F -6.9 °F -2.2 °F 72% 30.08 in 10.0 mi North 6.9 mph - N/A   Clear
12:55 PM 5.0 °F -2.1 °F -2.2 °F 72% 30.08 in 10.0 mi North 3.5 mph - N/A   Clear
1:15 PM 5.0 °F -2.1 °F -2.2 °F 72% 30.08 in 10.0 mi North 3.5 mph - N/A   Clear
1:35 PM 5.0 °F - -0.4 °F 78% 30.07 in 10.0 mi Calm Calm - N/A   Clear
1:55 PM 10.4 °F - -0.4 °F 62% 30.07 in 10.0 mi Calm Calm - N/A   Clear
2:15 PM 6.8 °F -0.1 °F -2.2 °F 67% 30.07 in 10.0 mi ESE 3.5 mph - N/A   Clear
2:35 PM 5.0 °F -2.1 °F -2.2 °F 72% 30.07 in 10.0 mi SSE 3.5 mph - N/A   Clear
2:55 PM 6.8 °F -2.0 °F -2.2 °F 67% 30.06 in 10.0 mi SE 4.6 mph - N/A   Clear
3:15 PM 3.2 °F -6.2 °F -2.2 °F 78% 30.06 in 10.0 mi SE 4.6 mph - N/A   Clear
3:35 PM 5.0 °F -2.1 °F -2.2 °F 72% 30.06 in 10.0 mi SE 3.5 mph - N/A   Clear
3:55 PM 5.0 °F -4.1 °F -2.2 °F 72% 30.07 in 10.0 mi SSE 4.6 mph - N/A   Clear
4:15 PM 5.0 °F -2.1 °F -2.2 °F 72% 30.07 in 10.0 mi SSE 3.5 mph - N/A   Clear
4:35 PM 1.4 °F -8.3 °F -2.2 °F 85% 30.07 in 10.0 mi SE 4.6 mph - N/A   Clear
4:55 PM 1.4 °F -8.3 °F -2.2 °F 85% 30.07 in 10.0 mi SSE 4.6 mph - N/A   Clear
5:15 PM 1.4 °F -8.3 °F -2.2 °F 85% 30.06 in 10.0 mi SSE 4.6 mph - N/A   Clear
5:35 PM 1.4 °F -8.3 °F -2.2 °F 85% 30.05 in 10.0 mi SSE 4.6 mph - N/A   Clear
5:55 PM 1.4 °F -8.3 °F -2.2 °F 85% 30.04 in 10.0 mi SSE 4.6 mph - N/A   Clear
6:15 PM 1.4 °F -9.9 °F -4.0 °F 78% 30.04 in 10.0 mi South 5.8 mph - N/A   Scattered Clouds
6:35 PM 1.4 °F -12.5 °F -2.2 °F 85% 30.03 in 10.0 mi South 8.1 mph - N/A   Overcast
6:55 PM 1.4 °F -13.5 °F -2.2 °F 85% 30.01 in 10.0 mi South 9.2 mph - N/A   Overcast
7:15 PM 3.2 °F -10.3 °F -2.2 °F 78% 30.00 in 10.0 mi South 8.1 mph - N/A   Overcast
7:35 PM 3.2 °F -11.3 °F -2.2 °F 78% 29.99 in 10.0 mi South 9.2 mph - N/A   Scattered Clouds
7:55 PM 3.2 °F -12.2 °F -0.4 °F 85% 29.99 in 10.0 mi South 10.4 mph - N/A   Clear
8:15 PM 3.2 °F -11.3 °F -0.4 °F 85% 29.97 in 10.0 mi South 9.2 mph - N/A   Clear
8:35 PM 3.2 °F -9.1 °F -0.4 °F 85% 29.97 in 10.0 mi SSE 6.9 mph - N/A   Clear
8:55 PM 5.0 °F -6.9 °F -0.4 °F 78% 29.95 in 10.0 mi South 6.9 mph - N/A   Clear
9:15 PM 5.0 °F -8.1 °F -0.4 °F 78% 29.94 in 10.0 mi South 8.1 mph - N/A   Clear
9:35 PM 5.0 °F -6.9 °F -0.4 °F 78% 29.93 in 10.0 mi SSE 6.9 mph - N/A   Clear
9:55 PM 5.0 °F -10.0 °F -0.4 °F 78% 29.91 in 10.0 mi South 10.4 mph - N/A   Clear
10:15 PM 5.0 °F -11.6 °F -0.4 °F 78% 29.90 in 10.0 mi South 12.7 mph - N/A   Clear
10:35 PM 5.0 °F -10.0 °F 1.4 °F 85% 29.88 in 10.0 mi SSE 10.4 mph - N/A   Mostly Cloudy
10:55 PM 5.0 °F -10.8 °F 1.4 °F 85% 29.87 in 10.0 mi South 11.5 mph - N/A   Mostly Cloudy
11:15 PM 6.8 °F -6.9 °F 1.4 °F 79% 29.86 in 10.0 mi South 9.2 mph - N/A   Mostly Cloudy
11:35 PM 6.8 °F -7.8 °F 1.4 °F 79% 29.85 in 10.0 mi South 10.4 mph - N/A   Overcast
11:55 PM 6.8 °F -8.6 °F 1.4 °F 79% 29.84 in 10.0 mi South 11.5 mph - N/A   Overcast